DW8201 Weather Reports


Display with metric or nautical units.
time (UTC)temp
F
wind
direction
speed
MPH
gust
MPH
rain 1hr
in
rain 24hr
in
rain mn
in
humidity
%
barometer
mb
20260504081156 58 180 1.0 4.0 0.01 0.18 0.02 93 1012.0
20260504080746 58 214 1.0 4.0 0.01 0.18 0.02 94 1012.0
20260504080238 58 246 1.0 4.0 0.01 0.18 0.02 94 1012.0
20260504080128 58 195 1.0 4.0 0.01 0.18 0.02 94 1012.0
20260504070208 57 172 2.0 5.0 0.00 0.17 0.01 96 1011.6
20260504060229 54 133 0.0 0.0 0.00 0.17 0.01 96 1011.1
20260504050714 53 141 0.0 2.0 0.00 0.17 0.01 96 1010.7
20260504050208 53 132 0.0 2.0 0.00 0.17 0.01 96 1010.6
20260504045700 53 159 0.0 2.0 0.00 0.17 0.01 96 1010.6
20260504045452 53 159 0.0 2.0 0.00 0.17 0.01 96 1010.6
20260504044646 52 181 0.0 0.0 0.00 0.17 0.01 96 1010.6
20260504044140 52 181 0.0 0.0 0.00 0.17 0.01 96 1010.6
20260504044029 52 181 0.0 0.0 0.00 0.17 0.01 96 1010.6
20260504043126 52 181 0.0 0.0 0.00 0.17 0.01 96 1010.6
20260504042619 52 181 0.0 2.0 0.00 0.17 0.01 96 1010.6
20260504042209 52 181 0.0 2.0 0.00 0.17 0.01 96 1010.6
20260504041956 52 158 0.0 0.0 0.00 0.17 0.01 96 1010.6
20260504041756 52 141 0.0 0.0 0.00 0.17 0.01 96 1010.6
20260504040648 52 158 0.0 0.0 0.00 0.17 0.01 96 1010.6
20260504040142 52 158 0.0 0.0 0.00 0.17 0.01 96 1010.6
20260504035638 52 158 0.0 0.0 0.00 0.17 0.01 96 1010.6
20260504035132 52 140 0.0 0.0 0.00 0.17 0.01 96 1010.7
20260504034626 52 168 0.0 0.0 0.00 0.17 0.01 96 1010.7
20260504034117 52 168 0.0 0.0 0.00 0.17 0.01 96 1010.7
20260504033612 52 168 0.0 0.0 0.00 0.17 0.01 96 1010.7
20260504033104 52 168 0.0 0.0 0.00 0.17 0.01 96 1010.7
20260504032656 52 168 0.0 0.0 0.00 0.17 0.01 96 1010.7
20260504032150 52 168 0.0 0.0 0.00 0.17 0.01 96 1010.8
20260504031647 52 168 0.0 0.0 0.00 0.17 0.01 96 1010.9
20260504031140 52 168 0.0 0.0 0.00 0.17 0.01 96 1010.8
20260504030630 52 168 0.0 0.0 0.00 0.17 0.01 96 1010.9
20260504030124 52 168 0.0 0.0 0.00 0.17 0.01 95 1010.8
20260504025614 52 168 0.0 0.0 0.00 0.17 0.01 95 1010.8
20260504025106 52 168 0.0 0.0 0.00 0.17 0.01 95 1010.8
20260504024558 52 168 0.0 0.0 0.00 0.17 0.01 95 1010.8
20260504024151 52 168 0.0 0.0 0.00 0.17 0.01 95 1010.8
20260504023642 52 168 0.0 0.0 0.00 0.17 0.01 95 1010.7
20260504023138 52 168 0.0 0.0 0.00 0.17 0.01 95 1010.6
20260504022630 52 168 0.0 0.0 0.00 0.17 0.01 95 1010.6
20260504022120 52 168 0.0 0.0 0.00 0.17 0.01 95 1010.5
20260504021616 52 168 0.0 0.0 0.00 0.17 0.01 95 1010.5
20260504021106 52 168 0.0 0.0 0.00 0.17 0.01 95 1010.6
20260504020601 52 168 0.0 0.0 0.00 0.17 0.01 95 1010.7
20260504020110 52 168 0.0 0.0 0.00 0.17 0.01 95 1010.7
20260504015950 53 168 0.0 0.0 0.00 0.17 0.01 95 1010.7
20260504015139 53 168 0.0 0.0 0.00 0.17 0.01 95 1010.8
20260504014629 53 168 0.0 0.0 0.00 0.17 0.01 95 1010.7
20260504014124 53 168 0.0 0.0 0.00 0.17 0.01 95 1010.7
20260504013615 53 168 0.0 0.0 0.00 0.17 0.01 95 1010.6
20260504013108 53 168 0.0 0.0 0.00 0.17 0.01 95 1010.6
20260504012602 52 168 0.0 0.0 0.00 0.17 0.01 95 1010.6
20260504012054 52 168 0.0 0.0 0.00 0.17 0.01 95 1010.6
20260504011548 53 168 0.0 0.0 0.00 0.17 0.01 95 1010.6
20260504011045 53 168 0.0 0.0 0.00 0.17 0.01 95 1010.6
20260504010637 53 168 0.0 0.0 0.00 0.17 0.01 95 1010.6
20260504010130 53 168 0.0 0.0 0.00 0.17 0.01 95 1010.6
20260504005622 53 168 0.0 0.0 0.00 0.17 0.01 94 1010.7
20260504005112 53 168 0.0 0.0 0.00 0.17 0.01 94 1010.7
20260504004605 53 168 0.0 0.0 0.00 0.17 0.01 94 1010.5
20260504004348 53 168 0.0 0.0 0.00 0.17 0.01 94 1010.6
20260504004148 53 168 0.0 0.0 0.00 0.17 0.01 94 1010.5
20260504003340 54 168 0.0 0.0 0.00 0.17 0.01 94 1010.6
20260504002933 54 168 0.0 0.0 0.00 0.17 0.01 94 1010.5
20260504002125 54 168 0.0 0.0 0.00 0.17 0.01 95 1010.4
20260504001618 54 168 0.0 0.0 0.00 0.17 0.01 94 1010.5
20260504001109 54 168 0.0 0.0 0.01 0.17 0.01 94 1010.4
20260504000603 54 168 0.0 0.0 0.01 0.17 0.01 94 1010.4
20260504000058 54 168 0.0 0.0 0.01 0.17 0.01 95 1010.5
20260503235845 54 168 0.0 0.0 0.01 0.17 0.01 95 1010.6
20260503235036 55 168 0.0 0.0 0.01 0.17 0.01 95 1010.7
20260503234534 55 168 0.0 0.0 0.01 0.17 0.01 95 1010.6
20260503234125 55 168 0.0 0.0 0.01 0.17 0.01 95 1010.6
20260503233621 55 168 0.0 0.0 0.01 0.17 0.01 95 1010.6
20260503233112 55 168 0.0 1.0 0.01 0.17 0.01 94 1010.6
20260503232607 55 168 0.0 1.0 0.01 0.17 0.01 94 1010.6
20260503232059 55 168 0.0 1.0 0.01 0.17 0.01 94 1010.6
20260503231551 55 168 0.0 1.0 0.01 0.17 0.01 94 1010.6
20260503231045 55 168 0.0 2.0 0.00 0.17 0.00 94 1010.7
20260503230536 55 168 0.0 2.0 0.00 0.17 0.00 94 1010.7
20260503230032 55 168 0.0 2.0 0.00 0.17 0.00 94 1010.7
20260503225526 55 168 0.0 2.0 0.00 0.17 0.00 94 1010.7
20260503225018 55 160 0.0 2.0 0.00 0.17 0.00 94 1010.7
20260503224913 56 160 0.0 3.0 0.00 0.17 0.00 94 1010.6
20260503224408 56 160 0.0 3.0 0.00 0.17 0.00 94 1010.6
20260503223556 56 179 0.0 3.0 0.00 0.17 0.00 94 1010.5
20260503223048 56 166 0.0 2.0 0.00 0.17 0.00 94 1010.5
20260503222539 56 166 0.0 3.0 0.00 0.17 0.00 94 1010.5
20260503222033 56 144 0.0 3.0 0.00 0.17 0.00 94 1010.5
20260503221525 56 166 0.0 2.0 0.00 0.17 0.00 94 1010.5
20260503221020 56 187 0.0 0.0 0.00 0.17 0.00 94 1010.6
20260503220513 56 187 0.0 4.0 0.00 0.17 0.00 94 1010.6
20260503220008 56 167 0.0 4.0 0.00 0.17 0.00 94 1010.6
20260503215559 56 145 0.0 4.0 0.00 0.17 0.17 94 1010.6
20260503215051 56 151 1.0 4.0 0.00 0.17 0.17 94 1010.6
20260503214545 56 155 2.0 5.0 0.00 0.17 0.17 94 1010.7
20260503214038 57 179 2.0 5.0 0.00 0.17 0.17 94 1010.6
20260503213529 57 186 2.0 5.0 0.00 0.17 0.17 94 1010.6
20260503213019 57 175 1.0 4.0 0.00 0.17 0.17 94 1010.6
20260503212515 57 151 2.0 5.0 0.00 0.17 0.17 94 1010.6
20260503212006 57 181 1.0 4.0 0.00 0.17 0.17 94 1010.5
20260503211459 57 167 1.0 3.0 0.00 0.17 0.17 94 1010.5
20260503211051 57 145 0.0 0.0 0.00 0.17 0.17 94 1010.4
20260503210546 57 160 0.0 1.0 0.00 0.17 0.17 93 1010.5
20260503210053 57 160 0.0 3.0 0.01 0.17 0.17 93 1010.5
20260503205532 57 158 1.0 3.0 0.01 0.17 0.17 93 1010.5
20260503205025 57 189 0.0 3.0 0.01 0.17 0.17 93 1010.5
20260503204515 57 162 1.0 3.0 0.01 0.17 0.17 93 1010.5
20260503204010 57 162 0.0 3.0 0.01 0.17 0.17 93 1010.5
20260503203503 57 165 0.0 3.0 0.01 0.17 0.17 93 1010.6
20260503202954 57 141 1.0 3.0 0.01 0.17 0.17 93 1010.6
20260503202549 57 137 1.0 3.0 0.01 0.17 0.17 93 1010.6
20260503202041 58 162 1.0 3.0 0.01 0.17 0.17 93 1010.6
20260503201533 58 156 0.0 3.0 0.01 0.17 0.17 93 1010.7
20260503201024 58 184 1.0 4.0 0.01 0.17 0.17 93 1010.7
20260503200515 58 200 1.0 4.0 0.01 0.17 0.17 93 1010.8
20260503200010 58 222 1.0 3.0 0.00 0.17 0.16 93 1010.9
20260503195501 58 203 1.0 3.0 0.00 0.17 0.16 93 1010.8
20260503194952 58 183 2.0 5.0 0.00 0.17 0.16 92 1010.7
20260503194449 58 149 3.0 7.0 0.00 0.18 0.16 92 1010.7
20260503194042 58 221 2.0 7.0 0.00 0.19 0.16 92 1010.6
20260503193533 58 191 2.0 6.0 0.00 0.20 0.16 91 1010.6
20260503193026 58 212 2.0 5.0 0.00 0.21 0.16 91 1010.6
20260503192518 58 191 2.0 6.0 0.00 0.24 0.16 91 1010.6
20260503192011 58 215 3.0 6.0 0.00 0.28 0.16 91 1010.5
20260503191503 58 185 2.0 6.0 0.00 0.28 0.16 90 1010.5
20260503191258 59 201 2.0 6.0 0.00 0.28 0.16 90 1010.4
20260503190748 59 191 4.0 8.0 0.00 0.28 0.16 90 1010.4
20260503190142 59 183 4.0 8.0 0.00 0.28 0.16 89 1010.3
20260503190039 59 187 4.0 8.0 0.00 0.28 0.16 89 1010.3
20260503185433 59 198 4.0 9.0 0.00 0.28 0.16 88 1010.2
20260503184616 60 217 4.0 9.0 0.00 0.28 0.16 87 1010.2
20260503184108 60 212 6.0 13.0 0.00 0.28 0.16 87 1010.1
20260503183602 60 136 6.0 13.0 0.00 0.28 0.16 87 1010.1
20260503183404 60 174 5.0 13.0 0.00 0.28 0.16 87 1010.1
20260503182547 60 158 5.0 13.0 0.00 0.28 0.16 87 1010.0
20260503182040 60 197 5.0 10.0 0.00 0.28 0.16 87 1010.0
20260503181532 60 168 5.0 11.0 0.00 0.28 0.16 86 1009.9
20260503181119 60 166 5.0 16.0 0.00 0.28 0.16 86 1009.9
20260503180614 60 169 6.0 16.0 0.00 0.28 0.16 86 1009.8
20260503180113 60 193 6.0 16.0 0.00 0.28 0.16 86 1009.8
20260503175910 60 183 6.0 16.0 0.00 0.28 0.16 86 1009.9
20260503175054 60 181 5.0 11.0 0.00 0.28 0.16 86 1009.9
20260503174547 60 202 6.0 12.0 0.00 0.28 0.16 87 1009.8
20260503174039 61 168 6.0 12.0 0.00 0.28 0.16 87 1009.7
20260503173533 61 156 6.0 14.0 0.00 0.28 0.16 86 1009.7
20260503173128 61 181 7.0 16.0 0.01 0.28 0.16 86 1009.7
20260503173025 61 204 7.0 14.0 0.01 0.28 0.16 86 1009.7
20260503172106 61 172 6.0 16.0 0.01 0.28 0.16 86 1009.6
20260503171600 61 189 5.0 10.0 0.01 0.28 0.16 87 1009.6
20260503171055 61 214 5.0 9.0 0.01 0.28 0.16 88 1009.5
20260503170549 61 193 5.0 9.0 0.01 0.28 0.16 88 1009.5
20260503150956 59 138 5.0 11.0 0.02 0.27 0.14 93 1009.8
20260503150539 59 177 5.0 11.0 0.02 0.27 0.14 93 1009.8
20260503130929 58 201 4.0 9.0 0.05 0.23 0.10 92 1010.6
20260503130516 58 186 4.0 9.0 0.04 0.22 0.09 92 1010.6
20260503110402 63 170 3.0 8.0 0.01 0.13 0.01 84 1010.3
20260503090339 64 151 5.0 9.0 0.00 0.13 0.00 76 1010.0